Weather History for EHAM - August, 2013

Change the Weather History Date:

Thursday, August 1, 2013

  Actual Average Record
Temperature  
Mean Temperature 75 °F -  
Max Temperature 86 °F 69 °F 87 °F (1999)
Min Temperature 64 °F 55 °F 48 °F (2011)
Cooling Degree Days 10    
Growing Degree Days 25 (Base 50)    
Moisture  
Dew Point 65 °F    
Average Humidity 71    
Maximum Humidity 94    
Minimum Humidity 41    
Precipitation  
Precipitation 0.00 in - - ()
Sea Level Pressure  
Sea Level Pressure 29.92 in    
Wind  
Wind Speed 7 mph ()    
Max Wind Speed 15 mph    
Max Gust Speed -    
Visibility 7.2 miles    
Events Fog    
Averages and records for this station are not official NWS values.
T = Trace of Precipitation, MM = Missing Value Source: Averaged Metar Reports

Daily Weather History Graph

Daily Weather History Graph

Search for Another Location

Airport or City:

Trip Planner

Search our weather history database for the weather conditions in past years. The results will help you decide how hot, cold, wet, or windy it might be!

Date:

Astronomy

Aug. 01, 2013 Rise Set
Actual Time 6:01 AM CEST 9:31 PM CEST
Civil Twilight 5:19 AM CEST 10:13 PM CEST
Nautical Twilight 4:22 AM CEST 11:09 PM CEST
Astronomical Twilight 2:58 AM CEST 12:31 AM CEST
Moon 1:24 AM CEST (8/1) 5:31 PM CEST (8/1)
Length of Visible Light 16h 53m
Length of Day
15h 30m
Waning Crescent, 25% of the Moon is Illuminated
Aug 1
Waning Crescent
Aug 6
New
Aug 14
First Quarter
Aug 21
Full
Aug 28
Last Quarter

Hourly Weather History & Observations

Time (CEST) Temp. Heat Index Dew Point Humidity Pressure Visibility Wind Dir Wind Speed Gust Speed Precip Events Conditions
12:25 AM 68.0 °F - 64.4 °F 88% 30.01 in 6.2 mi SSE 5.8 mph - N/A   Partly Cloudy
12:55 AM 68.0 °F - 64.4 °F 88% 30.01 in 6.2 mi South 5.8 mph - N/A   Partly Cloudy
1:25 AM 68.0 °F - 64.4 °F 88% 30.01 in 6.2 mi South 6.9 mph - N/A   Partly Cloudy
1:55 AM 68.0 °F - 64.4 °F 88% 29.98 in 6.2 mi South 4.6 mph - N/A   Partly Cloudy
2:00 AM 67 °F - 65 °F 92% 30.00 in 14 mi South 4.5 mph - -   Partly Cloudy
2:25 AM 68.0 °F - 64.4 °F 88% 29.98 in 6.2 mi South 3.5 mph - N/A   Partly Cloudy
2:55 AM 66.2 °F - 64.4 °F 94% 29.98 in - SE 3.5 mph - N/A   Clear
3:25 AM 66.2 °F - 64.4 °F 94% 29.98 in - SE 3.5 mph - N/A   Clear
3:55 AM 66.2 °F - 64.4 °F 94% 29.98 in - Variable 2.3 mph - N/A   Clear
4:25 AM 66.2 °F - 62.6 °F 88% 29.95 in - SSE 4.6 mph - N/A   Clear
4:55 AM 66.2 °F - 62.6 °F 88% 29.95 in - SSE 4.6 mph - N/A   Clear
5:00 AM 65 °F - 63 °F 92% 29.97 in 17 mi SSE 4.5 mph - -   Overcast
5:25 AM 64.4 °F - 62.6 °F 94% 29.95 in 6.2 mi South 5.8 mph - N/A Fog Shallow Fog
5:55 AM 66.2 °F - 62.6 °F 88% 29.95 in 6.2 mi SSW 6.9 mph - N/A Fog Shallow Fog
6:25 AM 66.2 °F - 64.4 °F 94% 29.95 in 6.2 mi SSW 4.6 mph - N/A Fog Shallow Fog
6:55 AM 66.2 °F - 62.6 °F 88% 29.95 in 6.2 mi South 5.8 mph - N/A   Partly Cloudy
7:25 AM 66.2 °F - 64.4 °F 94% 29.95 in 6.2 mi South 4.6 mph - N/A   Partly Cloudy
7:55 AM 68.0 °F - 64.4 °F 88% 29.95 in 6.2 mi South 5.8 mph - N/A   Partly Cloudy
8:25 AM 69.8 °F - 64.4 °F 83% 29.95 in 6.2 mi South 6.9 mph - N/A   Scattered Clouds
8:55 AM 71.6 °F - 64.4 °F 78% 29.95 in 6.2 mi South 6.9 mph - N/A   Partly Cloudy
9:25 AM 73.4 °F - 66.2 °F 78% 29.95 in - SSE 6.9 mph - N/A   Clear
9:55 AM 73.4 °F - 66.2 °F 78% 29.95 in - South 6.9 mph - N/A   Clear
10:25 AM 75.2 °F - 66.2 °F 73% 29.95 in 6.2 mi South 6.9 mph - N/A   Partly Cloudy
10:55 AM 77.0 °F - 66.2 °F 69% 29.95 in 6.2 mi South 6.9 mph - N/A   Partly Cloudy
11:00 AM 77 °F - 67 °F 63% 29.97 in 19 mi SSE 6.7 mph - -  
11:25 AM 78.8 °F - 66.2 °F 65% 29.95 in 6.2 mi South 5.8 mph - N/A   Partly Cloudy
11:55 AM 78.8 °F - 66.2 °F 65% 29.95 in 6.2 mi South 5.8 mph - N/A   Partly Cloudy
12:25 PM 80.6 °F 83.2 °F 68.0 °F 65% 29.95 in 6.2 mi SSE 8.1 mph - N/A   Partly Cloudy
12:55 PM 80.6 °F 83.2 °F 68.0 °F 65% 29.95 in 6.2 mi SSE 9.2 mph - N/A   Partly Cloudy
1:25 PM 82.4 °F 85.4 °F 68.0 °F 62% 29.92 in 6.2 mi South 10.4 mph - N/A   Partly Cloudy
1:55 PM 82.4 °F 84.6 °F 66.2 °F 58% 29.92 in 6.2 mi South 11.5 mph - N/A   Partly Cloudy
2:00 PM 83 °F - 68 °F 51% 29.93 in 22 mi South 8.9 mph - -   Partly Cloudy
2:25 PM 84.2 °F 86.6 °F 66.2 °F 55% 29.92 in 6.2 mi South 11.5 mph - N/A   Partly Cloudy
2:55 PM 84.2 °F 87.3 °F 68.0 °F 58% 29.92 in 6.2 mi SSE 12.7 mph - N/A   Partly Cloudy
3:25 PM 84.2 °F 86.6 °F 66.2 °F 55% 29.89 in 6.2 mi South 10.4 mph - N/A   Partly Cloudy
3:55 PM 86.0 °F 88.2 °F 66.2 °F 51% 29.89 in 6.2 mi South 12.7 mph - N/A   Partly Cloudy
4:25 PM 86.0 °F 89.4 °F 68.0 °F 55% 29.89 in 6.2 mi SSE 13.8 mph - N/A   Partly Cloudy
4:55 PM 86.0 °F 88.2 °F 66.2 °F 51% 29.89 in - South 13.8 mph - N/A   Clear
5:00 PM 86 °F - 66 °F 41% 29.90 in 22 mi SSE 13.4 mph - -  
5:25 PM 86.0 °F 88.2 °F 66.2 °F 51% 29.89 in 6.2 mi South 13.8 mph - N/A   Partly Cloudy
5:55 PM 86.0 °F 88.2 °F 66.2 °F 51% 29.86 in - SSE 12.7 mph - N/A   Clear
6:25 PM 86.0 °F 87.3 °F 64.4 °F 48% 29.86 in - SSE 15.0 mph - N/A   Clear
6:55 PM 86.0 °F 87.3 °F 64.4 °F 48% 29.86 in - SSE 11.5 mph - N/A   Clear
7:25 PM 86.0 °F 88.2 °F 66.2 °F 51% 29.86 in - SSE 11.5 mph - N/A   Clear
7:55 PM 84.2 °F 86.6 °F 66.2 °F 55% 29.86 in - SSE 10.4 mph - N/A   Clear
8:00 PM 84 °F - 65 °F 43% 29.86 in 25 mi SSE 11.2 mph - -   Partly Cloudy
8:25 PM 82.4 °F 84.6 °F 66.2 °F 58% 29.86 in - SSE 9.2 mph - N/A   Clear
8:55 PM 80.6 °F 82.7 °F 66.2 °F 61% 29.86 in - SSE 8.1 mph - N/A   Clear
9:25 PM 78.8 °F - 64.4 °F 61% 29.86 in - SE 8.1 mph - N/A   Clear
9:55 PM 75.2 °F - 64.4 °F 69% 29.86 in - ESE 6.9 mph - N/A   Clear
10:25 PM 75.2 °F - 64.4 °F 69% 29.86 in - ESE 6.9 mph - N/A   Clear
10:55 PM 73.4 °F - 64.4 °F 73% 29.86 in - ESE 8.1 mph - N/A   Clear
11:00 PM 75 °F - 65 °F 63% 29.86 in 28 mi ESE 8.9 mph - -  
11:25 PM 75.2 °F - 64.4 °F 69% 29.83 in - SE 9.2 mph - N/A   Clear
11:55 PM 75.2 °F - 64.4 °F 69% 29.86 in - ESE 9.2 mph - N/A   Clear